Вернуться в каталог

STARLINK-31869

АктивенСвязьVLEO
NORAD 60196·PAYLOAD·🇺🇸 United States

Запущен Jul 3, 2024 с Cape Canaveral Space Force Station

Loading…

Ближайшие Пролёты (ближайшие 24 часа)

TLE

СвежийSource: CelesTrak SupGP

Эпоха: Sep 14, 2026, 21:35 UTC

1 60196C 24124P   26257.89979167 -.00049851  00000+0 -16021-2 0  2570
2 60196  53.1569 162.1510 0001325  89.4560 340.2135 15.31747033    15

Отслеживайте STARLINK-31869 в реальном времени с AllMySat

Download on the App Store